Location: Allonne
(49.4086°N, 2.1143°E)
Time: 00:13:18
(UTC+00:00)

Cosmos 1606 Rocket - Pass Details

Date: 03 February 2023
Orbit: 602 x 629 km, 82.5° (Epoch: 01 April)

Event Time Altitude Azimuth Distance (km) Brightness Sun altitude
Rises 18:28:21 0° 346° (NNW) 2,869 7.1 -16.1°
Reaches altitude 10° 18:30:36 10° 343° (NNW) 1,960 6.3 -16.5°
Maximum altitude 18:34:50 56° 265° (W) 720 4.2 -17.1°
Drops below altitude 10° 18:39:03 10° 187° (S) 1,951 6.3 -17.8°
Sets 18:41:17 0° 183° (S) 2,852 7.1 -18.2°
